EHI
0 0 0 0 0 0 0 0 0 0 0 0 0 1 1 0 0 1 1 1 1 2 4 8 15 20 22 21 18 15 14 14 14 15 14 11 8 6 5 5 4 2 1 1 0 0 0 0 0
0 0 0 0 0 0 0 0 0 0 0 0 1 2 2 1 0 0 1 2 3 4 5 8 13 19 21 20 17 15 14 14 14 14 13 10 6 4 5 5 4 1 0 0 0 0 0 0 0
0 0 0 0 0 0 0 0 0 0 0 0 1 3 2 1 0 0 1 1 3 5 7 9 14 18 20 18 16 16 15 15 14 13 12 9 5 3 4 4 3 2 1 0 0 0 1 1 1
0 0 0 0 0 0 0 0 0 0 0 1 2 3 3 1 0 1 2 2 3 4 7 12 16 17 18 18 18 18 17 16 14 11 11 9 5 3 2 3 3 3 2 1 0 0 0 1 1
0 0 0 0 0 0 0 0 0 0 0 1 2 3 3 2 1 2 4 3 3 4 7 12 16 17 17 18 19 19 18 16 13 10 10 9 5 2 1 1 2 2 2 2 1 0 0 0 1
0 0 0 0 0 0 0 0 0 0 0 1 2 3 3 3 3 3 4 4 3 4 6 10 14 16 17 18 19 18 18 16 13 10 9 8 6 3 1 0 1 1 1 1 1 0 0 0 0
0 0 0 0 0 0 0 0 0 0 0 0 2 3 3 3 3 4 4 5 4 4 4 7 10 13 14 14 16 17 18 15 12 9 8 7 5 3 1 0 0 0 0 0 0 0 0 0 0
0 0 0 0 0 0 0 0 0 0 0 0 2 3 3 3 4 5 4 5 5 4 4 5 6 9 10 9 10 13 15 15 11 8 6 5 3 2 1 0 0 0 0 0 0 0 0 0 0
0 0 0 0 0 0 0 0 0 0 0 0 2 3 4 4 5 5 4 4 5 6 5 4 4 5 6 5 5 7 11 12 10 7 4 2 1 1 0 0 0 0 0 0 0 0 0 0 0
0 0 0 0 0 0 0 0 0 0 0 0 2 3 4 5 5 4 3 3 4 5 5 4 3 4 6 5 4 5 7 8 7 5 2 1 1 1 0 0 0 0 0 0 0 0 0 0 0
0 0 0 0 0 0 0 0 0 0 0 0 1 2 4 4 4 3 3 3 3 4 3 3 3 4 5 6 5 5 5 4 4 3 2 1 2 2 1 0 0 0 0 0 0 0 0 0 0
0 0 0 0 0 0 0 0 0 0 0 0 0 2 3 3 3 3 3 3 3 3 2 2 3 3 4 5 6 5 5 4 4 3 2 2 3 3 2 1 0 0 0 0 0 0 0 0 0
0 0 0 0 0 0 0 0 0 0 0 0 0 2 3 3 3 3 3 3 3 2 1 1 2 3 3 4 5 6 6 5 4 3 1 1 2 2 2 1 0 0 0 0 0 0 0 0 0
0 0 0 0 0 0 0 0 0 0 0 0 0 1 3 3 3 3 3 3 3 2 1 0 1 1 2 3 4 5 6 5 4 3 1 0 1 1 1 0 0 0 0 0 0 1 0 0 0
0 0 0 0 0 0 0 0 0 0 0 0 0 1 2 3 3 3 3 3 2 1 0 0 0 0 1 2 3 4 5 5 4 2 1 0 0 0 0 0 0 0 0 0 0 0 0 0 0
0 0 0 0 0 0 0 0 0 0 0 0 0 0 1 2 3 3 3 3 1 0 0 0 0 0 0 1 1 2 4 3 2 1 0 0 0 0 0 0 0 0 0 0 0 0 0 0 0
0 0 0 0 0 0 0 0 0 0 0 0 0 0 0 1 2 3 3 2 1 0 0 0 0 0 0 0 0 1 2 2 1 0 0 0 0 0 0 0 0 0 0 0 0 0 0 0 0
0 0 0 0 0 0 0 0 0 0 0 0 0 0 0 0 1 2 2 1 0 0 0 0 0 0 0 0 0 0 1 1 0 0 0 0 0 0 0 0 0 0 0 0 0 0 0 0 0
0 0 0 0 0 0 0 0 0 0 0 0 0 0 0 0 0 1 1 0 0 0 0 0 0 0 0 0 0 0 0 0 0 0 0 0 0 0 0 0 0 0 0 0 0 0 0 0 0
0 0 0 0 0 0 0 0 0 0 0 0 0 0 0 0 0 0 0 0 0 0 0 0 0 0 0 0 0 0 0 0 0 0 0 0 0 0 0 0 0 0 0 0 0 0 0 0 0
0 0 0 0 0 0 0 0 0 0 0 0 0 0 0 0 0 0 0 0 0 0 0 0 0 0 0 0 0 0 0 0 0 0 0 0 0 0 0 0 0 0 0 0 0 0 0 0 0
0 0 0 0 0 0 0 0 0 0 0 0 0 0 0 0 0 0 0 0 0 0 0 0 0 0 0 0 0 0 0 0 0 0 0 0 0 0 0 0 0 0 0 0 0 0 0 0 0
0 0 0 0 0 0 0 0 0 0 0 0 0 0 0 0 0 0 0 0 0 0 0 0 0 0 0 0 0 0 0 0 0 0 0 0 0 0 0 0 0 0 0 0 0 0 0 0 0
0 0 0 0 0 0 0 0 0 0 0 0 0 0 0 0 0 0 0 0 0 0 0 0 0 0 0 0 0 0 0 0 0 0 0 0 0 0 0 0 0 0 0 0 0 0 0 0 0
0 0 0 0 0 0 0 0 0 0 0 0 0 0 0 0 0 0 0 0 0 0 0 0 0 0 0 0 0 0 0 0 0 0 0 0 0 0 0 0 0 0 0 0 0 0 0 0 0
0 0 0 0 0 0 0 0 0 0 0 0 0 0 0 0 0 0 0 0 0 0 0 0 0 0 0 0 0 0 0 0 0 0 0 0 0 0 0 0 0 0 0 0 0 0 0 0 0
0 0 0 0 0 0 0 0 0 0 0 0 0 0 0 0 0 0 0 0 0 0 0 0 0 0 0 0 0 0 0 0 0 0 0 0 0 0 0 0 0 0 0 0 0 0 0 0 0
0 0 0 0 0 0 0 0 0 0 0 0 0 0 0 0 0 0 0 0 0 0 0 0 0 0 0 0 0 0 0 0 0 0 0 0 0 0 0 0 0 0 0 0 0 0 0 0 0
0 0 0 0 0 0 0 0 0 0 0 0 0 0 0 0 0 0 0 0 0 0 0 0 0 0 0 0 0 0 0 0 0 0 0 0 0 0 0 0 0 0 0 0 0 0 0 0 0
0 0 0 0 0 0 0 0 0 0 0 0 0 0 0 0 0 0 0 0 0 0 0 0 0 0 0 0 0 0 0 0 0 0 0 0 0 0 0 0 0 0 0 0 0 0 0 0 0
Wind_Speed
8 5 2 4 5 3 3 4 2 1 1 0 1 4 5 4 3 4 2 3 7 7 6 8 10 10 10 11 10 10 10 10 10 10 11 11 11 11 10 10 10 10 10 10 10 10 10 9 9
3 2 4 5 4 1 4 4 3 3 3 1 3 4 5 3 2 5 2 4 8 8 6 7 9 10 10 11 11 10 10 10 9 10 10 10 10 10 10 10 10 10 10 10 9 9 9 9 8
4 2 4 4 3 5 4 3 4 3 1 1 2 3 4 2 2 3 3 6 7 6 5 6 9 10 10 10 10 10 10 9 10 10 10 10 10 10 10 10 9 9 9 9 9 9 8 8 7
3 4 4 3 4 5 4 4 2 1 3 2 3 3 2 1 2 3 5 7 8 5 4 6 9 10 10 10 9 9 10 10 10 9 9 9 10 9 9 9 9 8 8 8 8 8 7 7 6
4 4 3 0 4 4 3 4 1 0 1 1 3 4 1 3 3 6 7 8 8 5 4 5 8 9 10 9 9 9 9 9 9 9 9 9 9 9 8 8 8 8 8 8 7 7 7 6 5
4 4 3 4 5 4 3 3 0 1 0 1 3 4 1 1 4 5 6 7 7 7 5 4 7 7 8 9 9 9 9 9 9 8 8 8 8 8 8 8 7 7 7 7 6 6 6 5 5
4 4 4 4 3 4 3 1 1 0 0 1 3 5 1 0 2 4 6 7 6 6 5 3 3 4 6 7 8 8 7 8 8 7 7 7 7 7 7 7 7 7 7 6 6 5 5 4 4
4 4 2 2 3 4 2 1 0 1 2 1 3 6 5 4 2 5 6 6 6 5 4 4 3 3 2 3 6 6 6 6 7 6 6 6 6 6 6 5 5 6 6 5 5 4 4 3 3
3 3 3 4 4 3 1 1 3 1 1 2 1 3 4 6 6 6 5 4 4 4 3 3 3 3 3 2 3 4 5 5 5 5 6 5 2 2 3 3 5 5 4 4 4 4 4 3 3
3 3 6 4 2 2 1 1 1 2 2 1 2 1 3 6 7 6 6 5 4 4 2 2 3 3 2 2 2 0 2 2 2 2 3 2 2 2 3 3 4 4 3 3 3 3 3 3 1
3 5 4 3 2 1 2 2 2 2 2 3 4 3 4 5 4 5 5 5 4 4 4 2 2 2 2 2 1 1 1 1 2 2 2 2 2 1 2 1 1 1 2 1 1 2 1 1 1
3 4 4 3 2 1 2 2 2 2 6 4 5 5 5 5 5 6 6 5 4 4 4 3 3 2 2 2 1 1 1 1 1 1 2 2 2 1 1 1 1 1 1 1 1 1 1 1 1
3 3 3 3 2 2 2 3 2 5 5 3 3 4 5 5 5 4 5 4 4 4 4 3 3 3 2 2 1 2 1 1 2 1 2 2 2 2 1 1 1 1 1 1 0 0 1 1 1
2 2 4 4 3 2 3 4 2 7 3 2 3 4 5 5 5 4 4 4 4 4 4 3 4 3 3 2 2 1 1 1 2 1 1 2 2 2 2 1 1 1 1 1 1 1 0 0 0
2 2 4 4 3 2 1 4 6 7 3 2 3 4 4 4 4 5 6 6 6 5 4 4 4 3 3 3 2 2 1 1 2 1 1 2 2 2 2 2 1 1 0 1 1 1 0 0 1
1 1 3 5 2 2 3 8 6 4 3 4 3 3 3 3 4 4 5 5 5 5 5 4 3 3 3 2 2 1 1 1 2 1 1 1 2 2 2 2 1 1 1 1 1 0 0 1 1
1 2 4 5 2 1 3 8 6 3 3 4 4 3 3 2 2 3 5 5 5 5 6 4 3 4 3 3 2 1 1 1 1 1 1 1 2 2 2 1 1 1 1 0 0 0 0 0 1
3 3 4 5 3 1 5 9 8 5 4 5 5 4 3 3 4 4 4 5 5 4 5 5 4 3 3 2 2 1 1 1 1 1 1 1 1 2 2 1 1 1 1 1 0 0 0 0 1
3 3 5 5 3 2 6 10 10 6 5 5 5 4 4 4 3 2 3 3 4 3 4 4 4 3 3 3 2 2 1 1 0 1 1 2 1 2 2 1 1 1 1 2 1 1 0 0 1
3 4 5 5 2 3 5 10 9 7 7 7 7 6 5 3 1 2 2 3 4 5 4 4 3 3 3 3 2 2 2 1 1 0 1 1 1 1 1 1 1 1 1 1 1 1 1 0 0
4 5 5 4 4 2 3 8 5 4 3 3 5 5 5 5 5 3 3 3 3 4 4 4 3 3 2 3 2 2 2 1 1 0 0 1 1 1 1 2 1 1 1 2 2 2 3 2 1
5 4 4 2 2 4 0 6 7 4 3 3 4 4 5 5 4 4 3 3 3 4 3 3 3 3 3 3 3 4 3 2 2 1 1 1 1 1 1 2 2 2 2 2 2 2 2 2 1
4 1 2 2 1 3 2 3 9 3 4 5 4 4 4 4 4 4 4 3 3 3 3 3 3 3 2 3 3 3 2 2 1 1 1 1 1 1 1 2 2 2 2 2 2 2 2 2 2
1 2 3 3 2 3 5 5 8 5 6 5 3 3 2 2 2 2 1 1 1 2 2 3 3 2 2 3 3 3 3 2 2 1 2 1 1 1 2 2 2 2 2 2 2 3 3 3 3
3 4 3 4 2 6 2 4 10 6 5 4 4 3 2 2 2 2 2 2 2 2 2 2 3 2 2 3 3 3 3 3 3 3 2 2 1 2 2 2 2 2 2 2 2 2 3 4 3
3 5 6 4 5 5 2 7 8 3 2 1 2 2 1 2 2 2 2 2 2 2 2 2 2 2 2 2 2 2 2 2 2 2 2 2 2 3 2 2 2 2 2 2 2 2 3 3 3
4 3 4 4 1 3 6 6 7 1 1 0 0 1 1 1 1 1 1 1 2 2 2 3 3 2 2 2 2 2 2 2 2 2 2 2 2 2 2 2 2 2 2 3 2 2 3 3 3
3 5 4 3 2 5 6 5 5 4 4 2 2 2 2 1 1 1 1 1 1 2 2 2 2 2 2 2 2 1 2 2 2 2 2 2 2 2 2 2 2 2 2 2 2 2 3 3 3
3 3 3 3 3 4 5 8 5 4 4 3 3 2 2 2 2 2 2 1 1 0 1 1 1 1 1 1 1 1 1 2 2 2 2 2 2 2 3 3 3 3 3 3 3 3 3 4 3
4 5 6 5 5 4 3 9 3 3 2 2 2 2 2 2 2 2 2 1 1 1 1 1 2 2 2 1 1 1 1 1 1 2 2 2 2 3 3 3 3 3 3 3 3 4 3 4 4
Wind_Direction
335 341 58 58 57 53 241 252 242 297 341 303 83 97 110 109 127 151 168 134 129 136 144 142 137 132 129 128 124 122 120 116 113 109 107 107 107 106 104 102 100 101 100 99 100 100 98 96 93
338 357 55 63 96 170 259 259 244 248 208 118 58 80 80 75 76 108 119 130 131 131 133 138 137 133 130 128 126 124 123 119 116 112 108 107 107 108 106 104 101 100 100 99 99 98 97 96 94
335 48 82 84 142 194 217 234 219 261 302 70 58 52 99 118 119 140 157 139 126 122 126 139 138 138 134 130 128 126 125 122 118 114 112 111 108 107 105 104 101 99 97 98 99 97 93 92 90
48 47 58 91 213 228 215 232 232 331 360 35 101 66 60 32 153 149 134 124 120 117 120 134 134 138 134 131 129 127 127 125 122 119 118 116 113 108 104 101 100 99 98 98 99 95 93 89 84
62 78 75 255 239 250 246 255 246 1 342 3 99 105 54 352 84 112 120 121 123 117 113 127 127 136 138 134 131 128 125 126 126 124 123 120 117 112 107 104 102 102 101 100 103 100 96 91 84
61 75 118 223 241 256 269 266 344 23 339 12 100 113 154 349 95 116 120 117 124 124 117 120 127 126 137 136 133 132 130 127 125 125 124 122 119 118 116 112 108 106 104 101 100 100 94 88 82
111 116 182 212 235 257 264 281 133 156 311 260 144 124 156 292 130 119 112 108 105 108 104 95 118 124 127 134 135 133 134 130 124 122 124 123 121 122 121 116 110 109 107 104 99 102 95 86 77
131 117 194 225 219 248 291 339 41 153 240 272 117 142 183 207 156 107 95 96 99 95 93 89 84 86 101 130 135 133 133 130 125 119 114 115 115 117 115 113 110 109 107 106 101 96 96 86 75
98 95 207 217 206 235 323 1 325 345 100 26 48 176 185 154 126 106 98 85 98 97 93 97 99 93 86 92 110 136 135 130 124 123 117 111 104 104 110 109 107 111 110 107 101 95 86 68 57
100 173 220 226 207 211 318 316 291 15 5 358 7 25 116 129 130 132 137 145 145 144 134 115 116 116 108 102 79 93 130 130 125 119 118 118 112 110 102 100 105 106 105 103 96 82 71 58 39
152 200 223 248 237 221 283 298 293 156 254 222 200 178 147 140 142 151 159 164 171 161 152 147 139 128 119 114 111 81 114 123 125 127 127 116 108 106 96 94 85 76 74 62 59 53 46 57 66
183 237 230 248 252 234 240 267 296 228 223 215 193 172 159 164 176 176 172 172 166 153 158 156 144 131 125 122 127 120 135 143 137 145 136 130 124 119 117 117 107 85 81 79 50 49 44 51 52
222 249 260 260 270 250 251 249 252 254 241 211 177 165 172 175 188 184 171 165 157 151 150 153 144 140 139 125 130 118 149 158 150 141 139 137 136 140 134 132 118 111 113 123 108 85 75 52 5
233 254 277 278 276 267 234 259 237 250 233 192 181 193 187 186 185 174 166 167 163 155 153 146 138 143 135 132 133 134 130 149 125 123 139 133 135 140 137 133 128 143 159 152 159 160 148 255 296
289 315 309 271 235 233 176 281 236 237 208 213 216 203 190 193 176 182 183 172 166 158 148 140 137 127 132 138 144 131 117 136 129 131 130 132 131 136 141 138 140 160 155 127 109 85 69 340 331
2 16 290 277 227 217 159 261 257 240 195 220 227 211 196 203 188 191 176 161 158 149 145 144 135 130 132 137 139 132 120 130 139 138 139 137 126 128 129 132 149 151 120 122 137 127 87 332 322
21 255 253 280 250 198 197 253 269 263 193 220 219 207 202 213 209 200 175 163 161 158 152 146 138 144 143 140 136 139 132 134 139 137 140 139 120 121 126 139 157 142 121 118 161 76 150 297 310
225 235 251 251 267 229 241 258 273 269 221 224 219 205 197 200 215 204 179 166 159 158 153 146 143 145 141 131 119 110 96 109 127 142 146 140 130 129 131 130 146 138 133 151 171 168 105 244 278
207 223 260 260 269 270 252 266 271 263 242 231 224 216 212 220 216 181 165 159 148 146 146 150 147 147 140 135 142 142 155 149 165 164 140 136 139 135 134 143 162 162 168 195 193 181 165 304 346
236 254 270 289 293 264 271 275 269 248 233 216 213 213 210 216 186 157 169 169 166 164 159 151 151 153 159 153 153 149 151 151 173 172 112 130 145 154 147 152 177 193 174 195 203 178 170 264 119
241 223 240 262 320 315 313 297 280 275 243 228 213 203 198 199 195 184 169 173 163 167 168 166 165 158 159 144 125 108 86 76 79 20 171 167 163 168 175 173 181 198 186 207 215 191 181 193 241
246 231 234 251 316 288 10 289 284 276 281 250 229 205 206 207 196 186 181 185 186 188 172 157 158 154 156 147 150 154 165 183 209 206 198 199 181 192 194 188 190 199 200 212 225 202 197 177 209
227 255 234 228 206 290 245 232 280 282 264 257 239 217 213 202 189 189 196 197 192 176 162 154 146 148 153 154 163 167 183 196 182 164 180 217 216 212 217 208 201 207 210 217 225 215 206 195 199
173 49 35 49 79 267 231 197 272 245 235 247 242 224 214 196 185 186 182 134 125 127 136 144 142 153 155 161 170 179 185 181 165 188 210 232 229 220 229 220 213 216 215 221 230 219 212 211 206
82 89 22 352 340 252 234 212 250 253 246 222 217 222 214 174 162 156 147 144 145 143 148 146 145 165 169 170 181 187 190 181 190 203 209 221 229 232 235 233 227 226 220 221 224 228 225 215 212
187 152 165 211 237 279 279 235 254 266 275 241 210 190 166 150 159 162 171 171 170 171 166 153 158 175 180 181 196 191 183 181 197 207 208 218 225 231 224 223 234 240 231 233 228 237 239 221 218
157 191 172 149 233 274 266 280 298 274 325 314 203 125 185 193 184 177 179 188 190 184 186 178 174 187 200 198 194 188 182 180 195 214 214 220 234 236 221 221 231 235 231 233 235 239 249 234 223
156 151 116 142 197 262 280 265 249 253 246 252 249 240 243 241 222 230 227 221 216 208 195 176 177 195 209 199 198 200 190 194 202 204 215 223 233 234 225 229 230 238 235 231 230 237 247 239 231
157 161 153 151 178 194 263 267 233 223 219 222 240 239 229 223 234 250 261 248 225 214 178 180 189 184 183 185 186 186 202 203 210 220 231 230 228 226 225 228 231 232 235 235 235 240 241 240 235
193 187 160 172 228 208 230 267 263 218 215 201 231 251 255 250 257 252 247 244 214 216 204 196 201 196 200 190 189 207 213 211 222 239 246 237 234 235 229 227 231 235 236 233 233 241 241 238 232